Zadar, Croatia

10:53 PM CEST on October 23, 2017 (GMT +0200)
Zemunik

Weather History for LDZD - October, 2017

Change the Weather History Date:

Thursday, October 12, 2017

  Actual Average Record
Temperature  
Mean Temperature 58 °F -  
Max Temperature 71 °F - - ()
Min Temperature 44 °F - - ()
Degree Days  
Heating Degree Days 8    
Growing Degree Days 8 (Base 50)    
Moisture  
Dew Point 51 °F    
Average Humidity 84    
Maximum Humidity 100    
Minimum Humidity 47    
Precipitation  
Precipitation 0.00 in - - ()
Sea Level Pressure  
Sea Level Pressure 30.26 in    
Wind  
Wind Speed 4 mph ()    
Max Wind Speed 8 mph    
Max Gust Speed -    
Visibility 7.3 miles    
Events      
T = Trace of Precipitation, MM = Missing Value Source: Averaged Metar Reports

Daily Weather History Graph

Daily Weather History Graph

Search for Another Location

Airport or City:

Trip Planner

Search our weather history database for the weather conditions in past years. The results will help you decide how hot, cold, wet, or windy it might be!

Date:

Astronomy

Oct. 12, 2017 Rise Set
Actual Time 7:09 AM CEST 6:19 PM CEST
Civil Twilight 6:40 AM CEST 6:48 PM CEST
Nautical Twilight 6:06 AM CEST 7:22 PM CEST
Astronomical Twilight 5:33 AM CEST 7:55 PM CEST
Moon No Moon Rise 2:12 PM CEST (10/12)
Length of Visible Light 12h 08m
Length of Day
11h 10m
Waning Gibbous, 51% of the Moon is Illuminated
Oct 12
Waning Gibbous
Oct 12
Last Quarter
Oct 19
New
Oct 28
First Quarter
Nov 4
Full

Hourly Weather History & Observations

Time (CEST) Temp. Windchill Dew Point Humidity Pressure Visibility Wind Dir Wind Speed Gust Speed Precip Events Conditions
12:00 AM 46.4 °F - 46.4 °F 100% 30.24 in - SE 1.2 mph - N/A   Clear
1:00 AM 46.4 °F 44.3 °F 44.6 °F 93% 30.24 in - SE 4.6 mph - N/A   Clear
1:30 AM 46.4 °F 42.9 °F 46.4 °F 100% 30.24 in - SE 6.9 mph - N/A   Clear
2:00 AM 47 °F - 46 °F 97% 30.26 in 6 mi SE 4.5 mph - -  
2:00 AM 46.4 °F 45.2 °F 46.4 °F 100% 30.24 in - SE 3.5 mph - N/A   Clear
2:30 AM 48.2 °F - 48.2 °F 100% 30.24 in - ESE 4.6 mph - N/A   Clear
3:00 AM 46.4 °F 44.3 °F 44.6 °F 93% 30.21 in 5.0 mi SE 4.6 mph - N/A   Unknown
3:30 AM 46.4 °F 44.3 °F 46.4 °F 100% 30.21 in - SE 4.6 mph - N/A   Clear
4:00 AM 46.4 °F 44.3 °F 46.4 °F 100% 30.21 in - SE 4.6 mph - N/A   Clear
4:30 AM 46.4 °F 43.5 °F 46.4 °F 100% 30.21 in - SE 5.8 mph - N/A   Clear
5:00 AM 46 °F - 45 °F 95% 30.25 in 6 mi SE 6.7 mph - -  
5:00 AM 46.4 °F 43.5 °F 44.6 °F 93% 30.21 in - SE 5.8 mph - N/A   Clear
5:30 AM 44.6 °F 41.4 °F 44.6 °F 100% 30.21 in 5.0 mi SE 5.8 mph - N/A   Unknown
6:00 AM 44.6 °F 41.4 °F 44.6 °F 100% 30.21 in 5.6 mi SE 5.8 mph - N/A   Unknown
6:30 AM 44.6 °F 41.4 °F 44.6 °F 100% 30.21 in - SE 5.8 mph - N/A   Clear
7:00 AM 44.6 °F 41.4 °F 44.6 °F 100% 30.21 in - SE 5.8 mph - N/A   Clear
7:30 AM 44.6 °F 41.4 °F 44.6 °F 100% 30.24 in - SE 5.8 mph - N/A   Clear
8:00 AM 46 °F - 46 °F 98% 30.26 in 9 mi SE 6.7 mph - -  
8:00 AM 46.4 °F 43.5 °F 46.4 °F 100% 30.24 in - SE 5.8 mph - N/A   Clear
8:30 AM 50.0 °F - 48.2 °F 94% 30.24 in - SE 4.6 mph - N/A   Clear
9:00 AM 55.4 °F - 50.0 °F 82% 30.27 in - SE 4.6 mph - N/A   Clear
9:30 AM 59.0 °F - 51.8 °F 77% 30.27 in - SSE 4.6 mph - N/A   Clear
10:00 AM 62.6 °F - 51.8 °F 68% 30.27 in - SSE 3.5 mph - N/A   Clear
10:30 AM 66.2 °F - 53.6 °F 64% 30.27 in - South 3.5 mph - N/A   Clear
11:00 AM 66 °F - 55 °F 58% 30.28 in 16 mi South 2.2 mph - -   Clear
11:00 AM 66.2 °F - 53.6 °F 64% 30.27 in - Variable 1.2 mph - N/A   Clear
11:30 AM 68.0 °F - 55.4 °F 64% 30.27 in 6.2 mi Variable 3.5 mph - N/A   Partly Cloudy
12:00 PM 66.2 °F - 55.4 °F 68% 30.27 in 6.2 mi WNW 3.5 mph - N/A   Partly Cloudy
12:30 PM 68.0 °F - 55.4 °F 64% 30.27 in 6.2 mi Variable 3.5 mph - N/A   Partly Cloudy
1:00 PM 69.8 °F - 53.6 °F 56% 30.27 in 6.2 mi WSW 5.8 mph - N/A   Partly Cloudy
1:30 PM 69.8 °F - 55.4 °F 60% 30.27 in 6.2 mi WSW 4.6 mph - N/A   Partly Cloudy
2:00 PM 71 °F - 55 °F 47% 30.27 in 19 mi WNW 6.7 mph - -   Scattered Clouds
2:30 PM 69.8 °F - 55.4 °F 60% 30.27 in 6.2 mi Variable 4.6 mph - N/A   Partly Cloudy
3:00 PM 71.6 °F - 55.4 °F 57% 30.27 in 6.2 mi West 6.9 mph - N/A   Partly Cloudy
3:30 PM 69.8 °F - 55.4 °F 60% 30.24 in 6.2 mi WSW 5.8 mph - N/A   Partly Cloudy
4:00 PM 69.8 °F - 57.2 °F 64% 30.24 in 6.2 mi West 8.1 mph - N/A   Partly Cloudy
4:30 PM 69.8 °F - 57.2 °F 64% 30.24 in 6.2 mi WSW 6.9 mph - N/A   Partly Cloudy
5:00 PM 69 °F - 56 °F 55% 30.27 in 19 mi WSW 6.7 mph - -   Scattered Clouds
5:00 PM 68.0 °F - 57.2 °F 68% 30.27 in 6.2 mi WSW 6.9 mph - N/A   Partly Cloudy
5:30 PM 68.0 °F - 57.2 °F 68% 30.24 in 6.2 mi WSW 6.9 mph - N/A   Partly Cloudy
6:00 PM 66.2 °F - 57.2 °F 73% 30.27 in - West 4.6 mph - N/A   Clear
6:30 PM 62.6 °F - 57.2 °F 82% 30.27 in 6.2 mi West 3.5 mph - N/A   Scattered Clouds
7:00 PM 60.8 °F - 57.2 °F 88% 30.27 in 6.2 mi WNW 4.6 mph - N/A   Partly Cloudy
7:30 PM 59.0 °F - 55.4 °F 88% 30.27 in - North 3.5 mph - N/A   Clear
8:00 PM 57 °F - 55 °F 90% 30.30 in 12 mi Calm Calm - -  
8:00 PM 57.2 °F - 55.4 °F 94% 30.27 in - Calm Calm - N/A   Clear
8:30 PM 55.4 °F - 53.6 °F 94% 30.27 in - Calm Calm - N/A   Clear
9:00 PM 55.4 °F - 53.6 °F 94% 30.27 in - Calm Calm - N/A   Clear
9:30 PM 53.6 °F - 53.6 °F 100% 30.30 in - Variable 1.2 mph - N/A   Clear
10:00 PM 51.8 °F - 51.8 °F 100% 30.30 in - Calm Calm - N/A   Clear
10:30 PM 53.6 °F - 51.8 °F 94% 30.30 in - Calm Calm - N/A   Clear
11:00 PM 51 °F - 50 °F 94% 30.31 in 2 mi SE 2.2 mph - -   Mist
11:00 PM 51.8 °F - 50.0 °F 94% 30.30 in 1.9 mi SE 3.5 mph - N/A   Mist
11:30 PM 50.0 °F - 48.2 °F 94% 30.30 in 3.7 mi ESE 2.3 mph - N/A   Unknown